• In Germany
  • List of Countries
  • For 7 days
  • Water Temperature
  • Satellite Maps
  • Weather Map
  • Weather Widgets
  • user-avatar
    Login

    Hourly Weather Makoua

    Today, 20 November, Monday

    Time Temperature Precipitation Wind Pressure Humidity
    00:00 +23°C° 0.1 mm 1 mps 726 mmHg 95%
    01:00 +23°C° 0.1 mm 1 mps 726 mmHg 96%
    02:00 +21°C° 0 mm 0 mps 726 mmHg 96%
    03:00 +21°C° 0 mm 0 mps 726 mmHg 96%
    04:00 +21°C° 0 mm 0 mps 726 mmHg 96%
    05:00 +21°C° 0 mm 0 mps 726 mmHg 94%
    06:00 +21°C° 0 mm 0 mps 726 mmHg 93%
    07:00 +22°C° 0 mm 0 mps 726 mmHg 92%
    08:00 +25°C° 0 mm 0 mps 727 mmHg 80%
    09:00 +28°C° 0 mm 0 mps 727 mmHg 68%
    10:00 +32°C° 0 mm 1 mps 728 mmHg 55%
    11:00 +33°C° 0.1 mm 1 mps 727 mmHg 53%
    12:00 +34°C° 0.1 mm 1 mps 726 mmHg 50%
    13:00 +34°C° 0.1 mm 1 mps 726 mmHg 47%
    14:00 +34°C° 0 mm 1 mps 725 mmHg 48%
    15:00 +34°C° 0 mm 1 mps 724 mmHg 49%
    16:00 +31°C° 0 mm 0 mps 724 mmHg 50%
    17:00 +29°C° 0 mm 0 mps 724 mmHg 58%
    18:00 +27°C° 0 mm 0 mps 725 mmHg 67%
    19:00 +25°C° 0 mm 0 mps 725 mmHg 75%
    20:00 +24°C° 0 mm 0 mps 725 mmHg 78%
    21:00 +24°C° 0 mm 0 mps 726 mmHg 81%
    22:00 +23°C° 0 mm 0 mps 726 mmHg 84%
    23:00 +23°C° 0.1 mm 0 mps 726 mmHg 86%

    Tomorrow, 21 November, Tuesday

    Time Temperature Precipitation Wind Pressure Humidity
    00:00 +23°C° 0.1 mm 0 mps 725 mmHg 88%
    01:00 +22°C° 0.1 mm 0 mps 725 mmHg 90%
    02:00 +22°C° 0.6 mm 0 mps 725 mmHg 92%
    03:00 +21°C° 0.6 mm 0 mps 725 mmHg 94%
    04:00 +21°C° 0.6 mm 0 mps 725 mmHg 96%
    05:00 +22°C° 0 mm 0 mps 725 mmHg 95%
    06:00 +22°C° 0 mm 0 mps 726 mmHg 94%
    07:00 +23°C° 0 mm 0 mps 726 mmHg 93%
    08:00 +26°C° 0 mm 0 mps 726 mmHg 79%
    09:00 +29°C° 0 mm 0 mps 727 mmHg 66%
    10:00 +33°C° 0 mm 0 mps 727 mmHg 52%
    11:00 +33°C° 0 mm 0 mps 726 mmHg 47%
    12:00 +36°C° 0 mm 1 mps 725 mmHg 42%
    13:00 +36°C° 0 mm 1 mps 724 mmHg 38%
    14:00 +36°C° 0 mm 1 mps 723 mmHg 40%
    15:00 +35°C° 0 mm 1 mps 723 mmHg 42%
    16:00 +35°C° 0 mm 1 mps 722 mmHg 45%
    17:00 +33°C° 0 mm 1 mps 723 mmHg 51%
    18:00 +29°C° 0 mm 0 mps 723 mmHg 57%
    19:00 +27°C° 0 mm 0 mps 723 mmHg 63%
    20:00 +26°C° 0 mm 0 mps 724 mmHg 65%
    21:00 +26°C° 0 mm 0 mps 725 mmHg 67%
    22:00 +27°C° 0 mm 1 mps 725 mmHg 69%
    23:00 +26°C° 0.4 mm 1 mps 725 mmHg 76%

    Day after tomorrow, 22 November, Wednesday

    Time Temperature Precipitation Wind Pressure Humidity
    00:00 +25°C° 0.4 mm 1 mps 725 mmHg 82%
    01:00 +24°C° 0.4 mm 1 mps 724 mmHg 89%
    02:00 +24°C° 0.3 mm 1 mps 724 mmHg 91%
    03:00 +24°C° 0.3 mm 1 mps 724 mmHg 94%
    04:00 +23°C° 0.3 mm 1 mps 724 mmHg 96%
    05:00 +24°C° 0.1 mm 1 mps 725 mmHg 94%
    06:00 +24°C° 0.1 mm 1 mps 725 mmHg 93%
    07:00 +25°C° 0.1 mm 1 mps 726 mmHg 91%
    08:00 +27°C° 0.5 mm 1 mps 726 mmHg 84%
    09:00 +29°C° 0.5 mm 1 mps 726 mmHg 76%
    10:00 +31°C° 0.5 mm 1 mps 727 mmHg 69%
    11:00 +31°C° 1.4 mm 1 mps 726 mmHg 69%
    12:00 +31°C° 1.4 mm 1 mps 725 mmHg 68%
    13:00 +31°C° 1.4 mm 1 mps 724 mmHg 68%
    14:00 +31°C° 0.4 mm 1 mps 724 mmHg 69%
    15:00 +30°C° 0.4 mm 1 mps 723 mmHg 70%
    16:00 +30°C° 0.4 mm 1 mps 723 mmHg 71%
    17:00 +28°C° 0.1 mm 1 mps 724 mmHg 77%
    18:00 +27°C° 0.1 mm 1 mps 724 mmHg 83%
    19:00 +26°C° 0.1 mm 1 mps 725 mmHg 89%
    20:00 +25°C° 0 mm 1 mps 725 mmHg 89%
    21:00 +25°C° 0 mm 1 mps 725 mmHg 89%
    22:00 +25°C° 0 mm 1 mps 726 mmHg 89%
    23:00 +25°C° 0 mm 1 mps 725 mmHg 89%

    23 November, Thursday

    Time Temperature Precipitation Wind Pressure Humidity
    00:00 +24°C° 0 mm 1 mps 725 mmHg 90%
    01:00 +24°C° 0 mm 1 mps 724 mmHg 90%
    02:00 +24°C° 0 mm 1 mps 724 mmHg 91%
    03:00 +23°C° 0 mm 1 mps 724 mmHg 92%
    04:00 +23°C° 0 mm 1 mps 724 mmHg 94%
    05:00 +24°C° 0 mm 1 mps 725 mmHg 92%
    06:00 +24°C° 0 mm 1 mps 725 mmHg 90%
    07:00 +25°C° 0 mm 1 mps 726 mmHg 88%
    08:00 +27°C° 0.1 mm 1 mps 726 mmHg 79%
    09:00 +29°C° 0.1 mm 1 mps 727 mmHg 70%
    10:00 +31°C° 0.1 mm 1 mps 727 mmHg 62%
    11:00 +31°C° 1 mm 1 mps 726 mmHg 65%
    12:00 +30°C° 1 mm 1 mps 725 mmHg 68%
    13:00 +30°C° 1 mm 1 mps 724 mmHg 71%
    14:00 +30°C° 0.5 mm 1 mps 724 mmHg 69%
    15:00 +30°C° 0.5 mm 1 mps 723 mmHg 68%
    16:00 +30°C° 0.5 mm 1 mps 723 mmHg 67%
    17:00 +28°C° 0.2 mm 1 mps 724 mmHg 75%
    18:00 +27°C° 0.2 mm 1 mps 724 mmHg 83%
    19:00 +25°C° 0.2 mm 1 mps 725 mmHg 90%
    20:00 +25°C° 0 mm 1 mps 725 mmHg 92%
    21:00 +24°C° 0 mm 1 mps 726 mmHg 93%
    22:00 +24°C° 0 mm 1 mps 726 mmHg 94%
    23:00 +24°C° 0 mm 1 mps 726 mmHg 95%

    24 November, Friday

    Time Temperature Precipitation Wind Pressure Humidity
    00:00 +24°C° 0 mm 1 mps 725 mmHg 95%
    01:00 +23°C° 0 mm 1 mps 725 mmHg 96%
    02:00 +23°C° 0 mm 1 mps 725 mmHg 96%
    03:00 +23°C° 0 mm 1 mps 725 mmHg 96%
    04:00 +23°C° 0 mm 1 mps 725 mmHg 96%
    05:00 +23°C° 0 mm 1 mps 725 mmHg 94%
    06:00 +24°C° 0 mm 1 mps 726 mmHg 92%
    07:00 +25°C° 0 mm 1 mps 726 mmHg 90%
    08:00 +27°C° 0 mm 1 mps 726 mmHg 77%
    09:00 +30°C° 0 mm 1 mps 726 mmHg 65%
    10:00 +33°C° 0 mm 1 mps 727 mmHg 52%
    11:00 +34°C° 0 mm 1 mps 726 mmHg 47%
    12:00 +35°C° 0 mm 1 mps 725 mmHg 43%
    13:00 +36°C° 0 mm 1 mps 724 mmHg 38%
    14:00 +35°C° 0 mm 1 mps 724 mmHg 39%
    15:00 +35°C° 0 mm 1 mps 723 mmHg 41%
    16:00 +34°C° 0 mm 1 mps 723 mmHg 43%
    17:00 +32°C° 0 mm 1 mps 723 mmHg 50%
    18:00 +30°C° 0 mm 1 mps 724 mmHg 57%
    19:00 +28°C° 0 mm 1 mps 724 mmHg 63%
    20:00 +27°C° 0.2 mm 1 mps 725 mmHg 70%
    21:00 +27°C° 0.2 mm 1 mps 725 mmHg 76%
    22:00 +26°C° 0.2 mm 1 mps 725 mmHg 83%
    23:00 +25°C° 0.7 mm 1 mps 725 mmHg 86%

    25 November, Saturday

    Time Temperature Precipitation Wind Pressure Humidity
    00:00 +25°C° 0.7 mm 1 mps 725 mmHg 89%
    01:00 +24°C° 0.7 mm 1 mps 725 mmHg 93%
    02:00 +24°C° 0.7 mm 1 mps 725 mmHg 93%
    03:00 +24°C° 0.7 mm 1 mps 725 mmHg 94%
    04:00 +24°C° 0.7 mm 1 mps 725 mmHg 94%
    05:00 +24°C° 0.1 mm 1 mps 725 mmHg 93%
    06:00 +24°C° 0.1 mm 1 mps 725 mmHg 92%
    07:00 +25°C° 0.1 mm 1 mps 726 mmHg 91%
    08:00 +27°C° 0 mm 1 mps 726 mmHg 81%
    09:00 +29°C° 0 mm 2 mps 726 mmHg 70%
    10:00 +31°C° 0 mm 2 mps 726 mmHg 60%
    11:00 +31°C° 0.8 mm 2 mps 726 mmHg 63%
    12:00 +31°C° 0.8 mm 1 mps 725 mmHg 66%
    13:00 +31°C° 0.8 mm 1 mps 724 mmHg 69%
    14:00 +30°C° 1.2 mm 1 mps 724 mmHg 73%
    15:00 +30°C° 1.2 mm 1 mps 724 mmHg 77%
    16:00 +27°C° 1.2 mm 0 mps 724 mmHg 80%
    17:00 +26°C° 1.2 mm 0 mps 724 mmHg 84%
    18:00 +24°C° 1.2 mm 0 mps 725 mmHg 89%
    19:00 +23°C° 1.2 mm 0 mps 726 mmHg 93%
    20:00 +23°C° 0.3 mm 0 mps 726 mmHg 93%
    21:00 +22°C° 0.3 mm 0 mps 726 mmHg 94%
    22:00 +24°C° 0.3 mm 1 mps 727 mmHg 94%
    23:00 +24°C° 0.2 mm 1 mps 727 mmHg 95%
    Show more